DH4SBM Weather Reports


Display with metric or nautical units.
time (UTC)temp
F
wind
direction
speed
MPH
gust
MPH
rain 1hr
in
rain 24hr
in
rain mn
in
humidity
%
barometer
mb
20260503220536 61 315 0.0 2.0 0.00 0.00 0.00 56 1016.8
20260503215536 61 315 0.0 2.0 0.00 0.00 0.00 55 1016.8
20260503214536 61 315 1.0 2.0 0.00 0.00 0.00 52 1016.8
20260503213537 61 0 0.0 0.0 0.00 0.00 0.00 51 1016.7
20260503212537 61 338 0.0 2.0 0.00 0.00 0.00 51 1016.6
20260503211537 61 338 0.0 1.0 0.00 0.00 0.00 50 1016.6
20260503210536 61 338 1.0 3.0 0.00 0.00 0.00 50 1016.5
20260503205536 62 315 2.0 4.0 0.00 0.00 0.00 50 1016.6
20260503204536 62 315 2.0 4.0 0.00 0.00 0.00 50 1016.4
20260503203536 62 315 3.0 5.0 0.00 0.00 0.00 49 1016.3
20260503202536 62 315 2.0 4.0 0.00 0.00 0.00 50 1016.3
20260503201536 62 315 2.0 4.0 0.00 0.00 0.00 49 1016.4
20260503200536 62 315 2.0 5.0 0.00 0.00 0.00 49 1016.2
20260503195536 63 315 2.0 5.0 0.00 0.00 0.00 48 1016.0
20260503194536 63 315 4.0 9.0 0.00 0.00 0.00 48 1015.8
20260503193536 64 315 2.0 5.0 0.00 0.00 0.00 48 1015.8
20260503192534 64 315 4.0 8.0 0.00 0.00 0.00 47 1015.5
20260503191534 64 315 5.0 11.0 0.00 0.00 0.00 46 1015.4
20260503190534 65 315 7.0 14.0 0.00 0.00 0.00 45 1015.6
20260503185534 65 292 7.0 14.0 0.00 0.00 0.00 45 1015.7
20260503184534 65 315 7.0 15.0 0.00 0.00 0.00 45 1015.5
20260503183537 65 292 7.0 13.0 0.00 0.00 0.00 45 1015.5
20260503182537 66 292 9.0 16.0 0.00 0.00 0.00 44 1015.2
20260503181537 67 315 8.0 16.0 0.00 0.00 0.00 44 1015.1
20260503180537 67 292 11.0 17.0 0.00 0.00 0.00 47 1014.9
20260503175537 68 292 4.0 25.0 0.00 0.00 0.00 52 1014.7
20260503174537 68 338 2.0 4.0 0.00 0.00 0.00 59 1014.4
20260503173539 69 338 3.0 5.0 0.00 0.00 0.00 58 1014.4
20260503172539 69 315 3.0 6.0 0.00 0.00 0.00 58 1014.4
20260503171539 69 315 4.0 7.0 0.00 0.00 0.00 57 1014.2
20260503170539 69 338 4.0 9.0 0.00 0.00 0.00 58 1014.2
20260503150539 76 22 3.0 6.0 0.00 0.00 0.00 39 1014.0
20260503130536 75 248 2.0 6.0 0.00 0.00 0.00 41 1015.2
20260503110542 74 68 2.0 4.0 0.00 0.00 0.00 44 1016.4
20260503081542 66 338 2.0 4.0 0.00 0.00 0.00 53 1017.6
20260503080542 65 315 0.0 3.0 0.00 0.00 0.00 54 1017.5
20260503072542 62 45 2.0 4.0 0.00 0.00 0.00 66 1017.4
20260503071542 62 338 2.0 4.0 0.00 0.00 0.00 66 1017.4
20260503070541 62 292 0.0 2.0 0.00 0.00 0.00 65 1017.4
20260503054538 53 112 0.0 2.0 0.00 0.00 0.00 77 1017.2
20260503053538 52 0 0.0 0.0 0.00 0.00 0.00 77 1017.2
20260503052538 51 112 1.0 2.0 0.00 0.00 0.00 78 1017.2
20260503051538 51 112 1.0 2.0 0.00 0.00 0.00 77 1017.1
20260503050538 50 0 0.0 0.0 0.00 0.00 0.00 78 1017.1
20260503045538 50 112 0.0 1.0 0.00 0.00 0.00 78 1017.0
20260503044538 50 0 0.0 0.0 0.00 0.00 0.00 77 1017.0
20260503043537 50 112 1.0 1.0 0.00 0.00 0.00 77 1017.1
20260503042537 50 112 1.0 2.0 0.00 0.00 0.00 77 1017.1
20260503041537 50 0 0.0 0.0 0.00 0.00 0.00 76 1017.1
20260503040537 50 202 0.0 2.0 0.00 0.00 0.00 75 1017.0
20260503035538 51 202 0.0 3.0 0.00 0.00 0.00 74 1017.1
20260503034538 51 0 0.0 0.0 0.00 0.00 0.00 75 1017.0
20260503033538 51 0 0.0 0.0 0.00 0.00 0.00 75 1017.0
20260503032538 51 0 0.0 0.0 0.00 0.00 0.00 73 1017.1
20260503031538 51 0 0.0 0.0 0.00 0.00 0.00 72 1017.0
20260503030538 52 0 0.0 0.0 0.00 0.00 0.00 71 1017.0
20260503025538 52 0 0.0 0.0 0.00 0.00 0.00 71 1017.0
20260503024538 52 0 0.0 0.0 0.00 0.00 0.00 71 1017.0
20260503023538 52 0 0.0 0.0 0.00 0.00 0.00 71 1017.0
20260503022538 52 0 0.0 0.0 0.00 0.00 0.00 71 1017.2
20260503021538 52 0 0.0 0.0 0.00 0.00 0.00 70 1017.2
20260503020538 52 248 1.0 3.0 0.00 0.00 0.00 70 1017.2
20260503015536 52 180 3.0 7.0 0.00 0.00 0.00 69 1017.2
20260503014536 52 135 2.0 4.0 0.00 0.00 0.00 70 1017.2
20260503013536 53 158 0.0 3.0 0.00 0.00 0.00 70 1017.2
20260503012538 53 0 0.0 0.0 0.00 0.00 0.00 69 1017.3
20260503011538 53 0 0.0 0.0 0.00 0.00 0.00 68 1017.2
20260503010538 53 90 0.0 2.0 0.00 0.00 0.00 67 1017.2
20260503005538 55 90 1.0 3.0 0.00 0.00 0.00 65 1017.1
20260503004536 56 90 2.0 4.0 0.00 0.00 0.00 64 1017.2
20260503003523 56 90 3.0 4.0 0.00 0.00 0.00 63 1017.2
20260503002523 56 90 1.0 3.0 0.00 0.00 0.00 63 1017.3
20260503001523 56 0 0.0 0.0 0.00 0.00 0.00 62 1017.3
20260503000523 56 0 0.0 0.0 0.00 0.00 0.00 60 1017.4
20260502235523 56 0 0.0 0.0 0.00 0.00 0.00 59 1017.5
20260502234524 57 0 0.0 0.0 0.00 0.00 0.00 60 1017.6
20260502233524 57 0 0.0 0.0 0.00 0.00 0.00 59 1017.7
20260502232524 58 0 0.0 0.0 0.00 0.00 0.00 60 1017.6
20260502231524 58 90 0.0 1.0 0.00 0.00 0.00 58 1017.6
20260502230524 58 0 0.0 0.0 0.00 0.00 0.00 57 1017.5
20260502225524 58 90 0.0 1.0 0.00 0.00 0.00 57 1017.5
20260502224524 59 90 0.0 1.0 0.00 0.00 0.00 56 1017.6
20260502223523 59 90 1.0 2.0 0.00 0.00 0.00 56 1017.7
20260502222523 59 90 1.0 2.0 0.00 0.00 0.00 55 1017.7
20260502221524 60 90 1.0 3.0 0.00 0.00 0.00 55 1017.7